Home   Weather   Worcester   Past weeks

Flag for USA Past Weather in Worcester, Massachusetts, USA — Yesterday and Last 2 Weeks

Now
33 °F

Rain. Fog.


Feels Like: 26 °F
Forecast: 28 / 39 °F
Wind: 8 mph from East

Location: Worcester Regional Airport

Current Time: Jan 17, 2017 at 6:38:09 pm

Latest Report: Jan 17, 2017 at 5:54 pm


Visibility: 6 mi

Pressure: 30.16 "Hg

Humidity: 85%

Dew Point: 29 °F

Location of WorcesterLocation

Past Weather in Worcester — Graph

°F

Worcester Temperature Yesterday

Maximum temperature yesterday: 36 °F (at 2:54 pm)
Minimum temperature yesterday: 20 °F (at 12:54 am)
Average temperature yesterday: 28 °F

High & Low Weather Summary for the Past Weeks

 TemperatureHumidityPressure
High56 °F (Jan 12, 11:54 am)97% (Jan 3, 8:54 am)30.68 "Hg (Jan 3, 8:54 am)
Low2 °F (Jan 9, 6:54 am)28% (Jan 13, 8:54 pm)29.35 "Hg (Jan 4, 5:02 am)
Average28 °F72%30.13 "Hg
* Reported Jan 2 5:54 pm — Jan 17 5:36 pm, Worcester, Weather by CustomWeather, © 2017

Note: Actual official high and low records may vary slightly from our data, if they occured in-between our weather recording intervals... More about our weather records

Advertising

Worcester Weather History for the Previous 24 Hours

Scroll right to see more
 ConditionsComfort  
Time TempWeatherWind HumidityBarometerVisibility
5:36 pm
Tue, Jan 17
34 °FLight rain. Mostly cloudy.8 mph82%30.13 "Hg10 mi
4:54 pm35 °FOvercast.9 mph75%30.16 "Hg10 mi
3:54 pm36 °FLight rain. Mostly cloudy.6 mph67%30.18 "Hg10 mi
2:54 pm37 °FOvercast.9 mph54%30.16 "Hg10 mi
1:54 pm37 °FOvercast.9 mph41%30.18 "Hg10 mi
12:54 pm38 °FPassing clouds.8 mph39%30.18 "Hg10 mi
11:54 am38 °FOvercast.10 mph39%30.20 "Hg10 mi
10:54 am37 °FSunny.6 mph39%30.22 "Hg10 mi
9:54 am34 °FSunny.3 mph44%30.25 "Hg10 mi
8:54 am33 °FSunny.6 mph45%30.24 "Hg10 mi
7:54 am32 °FSunny.3 mph47%30.22 "Hg10 mi
6:54 am31 °FClear.6 mph49%30.20 "Hg10 mi
5:54 am32 °FClear.12 mph50%30.19 "Hg10 mi
4:54 am33 °FClear.16 mph48%30.19 "Hg10 mi
3:54 am32 °FClear.15 mph50%30.18 "Hg10 mi
2:54 am32 °FPassing clouds.14 mph52%30.20 "Hg10 mi
1:54 am31 °FOvercast.13 mph57%30.20 "Hg10 mi
12:54 am32 °FClear.16 mph54%30.20 "Hg10 mi
11:54 pm
Mon, Jan 16
32 °FClear.17 mph54%30.21 "Hg10 mi
10:54 pm32 °FClear.17 mph52%30.22 "Hg10 mi
9:54 pm32 °FClear.16 mph52%30.24 "Hg10 mi
8:54 pm32 °FClear.15 mph52%30.25 "Hg10 mi
7:54 pm32 °FClear.15 mph52%30.26 "Hg10 mi
6:54 pm33 °FClear.17 mph49%30.27 "Hg10 mi
Weather by CustomWeather, © 2017

See weather overviewHow to use our weather pages